Location: Bergnershof
(48.9468°N, 10.9431°E)
Time: 15:25:32
(UTC+00:00)

Cosmos 2333 Rocket - Pass Details

Date: 29 June 2021
Orbit: 841 x 861 km, 70.8° (Epoch: 28 July)

Event Time Altitude Azimuth Distance (km) Brightness Sun altitude
Rises 21:58:35 0° 282° (WNW) 3,426 5.8 -15.6°
Reaches altitude 10° 22:03:00 10° 314° (NW) 2,488 5.6 -15.9°
Maximum altitude 22:04:59 12° 335° (NNW) 2,365 5.8 -16.0°
Drops below altitude 10° 22:06:58 10° 355° (N) 2,486 5.9 -16.1°
Sets 22:11:23 0° 27° (NNE) 3,419 6.1 -16.3°
